Year,Month,Day,Hour,Minute,Value (Times are PST for temperature in C)
2015,05,19,00,00,12.30
2015,05,19,00,01,12.30
2015,05,19,00,02,12.30
2015,05,19,00,03,12.20
2015,05,19,00,04,12.20
2015,05,19,00,05,12.20
2015,05,19,00,06,12.20
2015,05,19,00,07,12.20
2015,05,19,00,08,12.20
2015,05,19,00,09,12.20
2015,05,19,00,10,12.10
2015,05,19,00,11,12.10
2015,05,19,00,12,12.10
2015,05,19,00,13,12.10
2015,05,19,00,14,12.10
2015,05,19,00,15,12.10
2015,05,19,00,16,12.10
2015,05,19,00,17,12.10
2015,05,19,00,18,12.10
2015,05,19,00,19,12.10
2015,05,19,00,20,12.10
2015,05,19,00,21,12.10
2015,05,19,00,22,12.10
2015,05,19,00,23,12.10
2015,05,19,00,24,12.10
2015,05,19,00,25,12.10
2015,05,19,00,26,12.10
2015,05,19,00,27,12.10
2015,05,19,00,28,12.10
2015,05,19,00,29,12.00
2015,05,19,00,30,12.00
2015,05,19,00,31,12.00
2015,05,19,00,32,12.00
2015,05,19,00,33,12.00
2015,05,19,00,34,11.90
2015,05,19,00,35,11.90
2015,05,19,00,36,11.90
2015,05,19,00,37,11.90
2015,05,19,00,38,11.90
2015,05,19,00,39,11.80
2015,05,19,00,40,11.80
2015,05,19,00,41,11.80
2015,05,19,00,42,11.80
2015,05,19,00,43,11.80
2015,05,19,00,44,11.80
2015,05,19,00,45,11.80
2015,05,19,00,46,11.80
2015,05,19,00,47,11.80
2015,05,19,00,48,11.80
2015,05,19,00,49,11.80
2015,05,19,00,50,11.80
2015,05,19,00,51,11.70
2015,05,19,00,52,11.70
2015,05,19,00,53,11.70
2015,05,19,00,54,11.70
2015,05,19,00,55,11.70
2015,05,19,00,56,11.70
2015,05,19,00,57,11.70
2015,05,19,00,58,11.70
2015,05,19,00,59,11.70
2015,05,19,01,00,11.70
2015,05,19,01,01,11.70
2015,05,19,01,02,11.70
2015,05,19,01,03,11.70
2015,05,19,01,04,11.70
2015,05,19,01,05,11.70
2015,05,19,01,06,11.70
2015,05,19,01,07,11.70
2015,05,19,01,08,11.70
2015,05,19,01,09,11.70
2015,05,19,01,10,11.70
2015,05,19,01,11,11.70
2015,05,19,01,12,11.70
2015,05,19,01,13,11.70
2015,05,19,01,14,11.70
2015,05,19,01,15,11.70
2015,05,19,01,16,11.70
2015,05,19,01,17,11.70
2015,05,19,01,18,11.70
2015,05,19,01,19,11.70
2015,05,19,01,20,11.70
2015,05,19,01,21,11.70
2015,05,19,01,22,11.70
2015,05,19,01,23,11.80
2015,05,19,01,24,11.80
2015,05,19,01,25,11.70
2015,05,19,01,26,11.70
2015,05,19,01,27,11.70
2015,05,19,01,28,11.70
2015,05,19,01,29,11.70
2015,05,19,01,30,11.70
2015,05,19,01,31,11.70
2015,05,19,01,32,11.70
2015,05,19,01,33,11.70
2015,05,19,01,34,11.70
2015,05,19,01,35,11.70
2015,05,19,01,36,11.70
2015,05,19,01,37,11.70
2015,05,19,01,38,11.70
2015,05,19,01,39,11.70
2015,05,19,01,40,11.70
2015,05,19,01,41,11.70
2015,05,19,01,42,11.70
2015,05,19,01,43,11.70
2015,05,19,01,44,11.70
2015,05,19,01,45,11.70
2015,05,19,01,46,11.60
2015,05,19,01,47,11.70
2015,05,19,01,48,11.60
2015,05,19,01,49,11.60
2015,05,19,01,50,11.70
2015,05,19,01,51,11.60
2015,05,19,01,52,11.60
2015,05,19,01,53,11.60
2015,05,19,01,54,11.60
2015,05,19,01,55,11.50
2015,05,19,01,56,11.50
2015,05,19,01,57,11.50
2015,05,19,01,58,11.50
2015,05,19,01,59,11.50
2015,05,19,02,00,11.50
2015,05,19,02,01,11.50
2015,05,19,02,02,11.40
2015,05,19,02,03,11.40
2015,05,19,02,04,11.40
2015,05,19,02,05,11.40
2015,05,19,02,06,11.40
2015,05,19,02,07,11.40
2015,05,19,02,08,11.40
2015,05,19,02,09,11.40
2015,05,19,02,10,11.40
2015,05,19,02,11,11.40
2015,05,19,02,12,11.30
2015,05,19,02,13,11.30
2015,05,19,02,14,11.30
2015,05,19,02,15,11.30
2015,05,19,02,16,11.30
2015,05,19,02,17,11.30
2015,05,19,02,18,11.20
2015,05,19,02,19,11.20
2015,05,19,02,20,11.20
2015,05,19,02,21,11.20
2015,05,19,02,22,11.20
2015,05,19,02,23,11.20
2015,05,19,02,24,11.20
2015,05,19,02,25,11.20
2015,05,19,02,26,11.20
2015,05,19,02,27,11.20
2015,05,19,02,28,11.10
2015,05,19,02,29,11.10
2015,05,19,02,30,11.10
2015,05,19,02,31,11.10
2015,05,19,02,32,11.10
2015,05,19,02,33,11.10
2015,05,19,02,34,11.00
2015,05,19,02,35,11.00
2015,05,19,02,36,11.00
2015,05,19,02,37,11.00
2015,05,19,02,38,11.00
2015,05,19,02,39,11.00
2015,05,19,02,40,10.90
2015,05,19,02,41,10.90
2015,05,19,02,42,10.90
2015,05,19,02,43,10.90
2015,05,19,02,44,10.90
2015,05,19,02,45,10.90
2015,05,19,02,46,10.90
2015,05,19,02,47,10.90
2015,05,19,02,48,10.90
2015,05,19,02,49,10.90
2015,05,19,02,50,10.90
2015,05,19,02,51,10.80
2015,05,19,02,52,10.80
2015,05,19,02,53,10.80
2015,05,19,02,54,10.80
2015,05,19,02,55,10.80
2015,05,19,02,56,10.80
2015,05,19,02,57,10.80
2015,05,19,02,58,10.80
2015,05,19,02,59,10.80
2015,05,19,03,00,10.70
2015,05,19,03,01,10.70
2015,05,19,03,02,10.70
2015,05,19,03,03,10.70
2015,05,19,03,04,10.70
2015,05,19,03,05,10.70
2015,05,19,03,06,10.70
2015,05,19,03,07,10.60
2015,05,19,03,08,10.60
2015,05,19,03,09,10.60
2015,05,19,03,10,10.60
2015,05,19,03,11,10.60
2015,05,19,03,12,10.60
2015,05,19,03,13,10.60
2015,05,19,03,14,10.60
2015,05,19,03,15,10.60
2015,05,19,03,16,10.60
2015,05,19,03,17,10.50
2015,05,19,03,18,10.50
2015,05,19,03,19,10.50
2015,05,19,03,20,10.50
2015,05,19,03,21,10.40
2015,05,19,03,22,10.40
2015,05,19,03,23,10.40
2015,05,19,03,24,10.40
2015,05,19,03,25,10.40
2015,05,19,03,26,10.40
2015,05,19,03,27,10.40
2015,05,19,03,28,10.40
2015,05,19,03,29,10.40
2015,05,19,03,30,10.40
2015,05,19,03,31,10.40
2015,05,19,03,32,10.40
2015,05,19,03,33,10.40
2015,05,19,03,34,10.40
2015,05,19,03,35,10.40
2015,05,19,03,36,10.40
2015,05,19,03,37,10.30
2015,05,19,03,38,10.30
2015,05,19,03,39,10.30
2015,05,19,03,40,10.30
2015,05,19,03,41,10.30
2015,05,19,03,42,10.30
2015,05,19,03,43,10.30
2015,05,19,03,44,10.30
2015,05,19,03,45,10.30
2015,05,19,03,46,10.30
2015,05,19,03,47,10.30
2015,05,19,03,48,10.30
2015,05,19,03,49,10.20
2015,05,19,03,50,10.20
2015,05,19,03,51,10.20
2015,05,19,03,52,10.20
2015,05,19,03,53,10.20
2015,05,19,03,54,10.20
2015,05,19,03,55,10.20
2015,05,19,03,56,10.20
2015,05,19,03,57,10.20
2015,05,19,03,58,10.20
2015,05,19,03,59,10.20
2015,05,19,04,00,10.20
2015,05,19,04,01,10.20
2015,05,19,04,02,10.20
2015,05,19,04,03,10.20
2015,05,19,04,04,10.20
2015,05,19,04,05,10.20
2015,05,19,04,06,10.20
2015,05,19,04,07,10.20
2015,05,19,04,08,10.20
2015,05,19,04,09,10.20
2015,05,19,04,10,10.20
2015,05,19,04,11,10.20
2015,05,19,04,12,10.30
2015,05,19,04,13,10.30
2015,05,19,04,14,10.30
2015,05,19,04,15,10.30
2015,05,19,04,16,10.30
2015,05,19,04,17,10.30
2015,05,19,04,18,10.30
2015,05,19,04,19,10.30
2015,05,19,04,20,10.20
2015,05,19,04,21,10.20
2015,05,19,04,22,10.20
2015,05,19,04,23,10.20
2015,05,19,04,24,10.20
2015,05,19,04,25,10.20
2015,05,19,04,26,10.10
2015,05,19,04,27,10.10
2015,05,19,04,28,10.10
2015,05,19,04,29,10.10
2015,05,19,04,30,10.10
2015,05,19,04,31,10.10
2015,05,19,04,32,10.10
2015,05,19,04,33,10.10
2015,05,19,04,34,10.10
2015,05,19,04,35,10.00
2015,05,19,04,36,10.00
2015,05,19,04,37,10.00
2015,05,19,04,38,10.00
2015,05,19,04,39,10.00
2015,05,19,04,40,9.90
2015,05,19,04,41,9.90
2015,05,19,04,42,9.90
2015,05,19,04,43,9.90
2015,05,19,04,44,9.90
2015,05,19,04,45,9.90
2015,05,19,04,46,9.90
2015,05,19,04,47,9.90
2015,05,19,04,48,9.80
2015,05,19,04,49,9.80
2015,05,19,04,50,9.80
2015,05,19,04,51,9.80
2015,05,19,04,52,9.80
2015,05,19,04,53,9.90
2015,05,19,04,54,9.90
2015,05,19,04,55,9.90
2015,05,19,04,56,9.80
2015,05,19,04,57,9.80
2015,05,19,04,58,9.80
2015,05,19,04,59,9.80
2015,05,19,05,00,9.80
2015,05,19,05,01,9.80
2015,05,19,05,02,9.80
2015,05,19,05,03,9.80
2015,05,19,05,04,9.80
2015,05,19,05,05,9.80
2015,05,19,05,06,9.80
2015,05,19,05,07,9.80
2015,05,19,05,08,9.80
2015,05,19,05,09,9.80
2015,05,19,05,10,9.90
2015,05,19,05,11,9.90
2015,05,19,05,12,9.90
2015,05,19,05,13,9.90
2015,05,19,05,14,9.90
2015,05,19,05,15,9.90
2015,05,19,05,16,9.90
2015,05,19,05,17,9.90
2015,05,19,05,18,9.90
2015,05,19,05,19,9.90
2015,05,19,05,20,9.80
2015,05,19,05,21,9.80
2015,05,19,05,22,9.80
2015,05,19,05,23,9.80
2015,05,19,05,24,9.80
2015,05,19,05,25,9.80
2015,05,19,05,26,9.80
2015,05,19,05,27,9.80
2015,05,19,05,28,9.70
2015,05,19,05,29,9.70
2015,05,19,05,30,9.70
2015,05,19,05,31,9.70
2015,05,19,05,32,9.70
2015,05,19,05,33,9.70
2015,05,19,05,34,9.70
2015,05,19,05,35,9.70
2015,05,19,05,36,9.70
2015,05,19,05,37,9.70
2015,05,19,05,38,9.70
2015,05,19,05,39,9.70
2015,05,19,05,40,9.70
2015,05,19,05,41,9.70
2015,05,19,05,42,9.70
2015,05,19,05,43,9.70
2015,05,19,05,44,9.70
2015,05,19,05,45,9.70
2015,05,19,05,46,9.70
2015,05,19,05,47,9.70
2015,05,19,05,48,9.70
2015,05,19,05,49,9.70
2015,05,19,05,50,9.70
2015,05,19,05,51,9.70
2015,05,19,05,52,9.70
2015,05,19,05,53,9.70
2015,05,19,05,54,9.70
2015,05,19,05,55,9.70
2015,05,19,05,56,9.70
2015,05,19,05,57,9.70
2015,05,19,05,58,9.70
2015,05,19,05,59,9.70
2015,05,19,06,00,9.70
2015,05,19,06,01,9.70
2015,05,19,06,02,9.70
2015,05,19,06,03,9.70
2015,05,19,06,04,9.70
2015,05,19,06,05,9.80
2015,05,19,06,06,9.80
2015,05,19,06,07,9.80
2015,05,19,06,08,9.90
2015,05,19,06,09,9.90
2015,05,19,06,10,9.90
2015,05,19,06,11,9.90
2015,05,19,06,12,10.00
2015,05,19,06,13,10.00
2015,05,19,06,14,10.00
2015,05,19,06,15,10.10
2015,05,19,06,16,10.10
2015,05,19,06,17,10.20
2015,05,19,06,18,10.20
2015,05,19,06,19,10.30
2015,05,19,06,20,10.30
2015,05,19,06,21,10.30
2015,05,19,06,22,10.40
2015,05,19,06,23,10.50
2015,05,19,06,24,10.50
2015,05,19,06,25,10.60
2015,05,19,06,26,10.60
2015,05,19,06,27,10.70
2015,05,19,06,28,10.70
2015,05,19,06,29,10.80
2015,05,19,06,30,10.80
2015,05,19,06,31,10.90
2015,05,19,06,32,10.90
2015,05,19,06,33,11.00
2015,05,19,06,34,11.10
2015,05,19,06,35,11.10
2015,05,19,06,36,11.20
2015,05,19,06,37,11.20
2015,05,19,06,38,11.20
2015,05,19,06,39,11.20
2015,05,19,06,40,11.20
2015,05,19,06,41,11.20
2015,05,19,06,42,11.20
2015,05,19,06,43,11.30
2015,05,19,06,44,11.30
2015,05,19,06,45,11.30
2015,05,19,06,46,11.40
2015,05,19,06,47,11.40
2015,05,19,06,48,11.50
2015,05,19,06,49,11.60
2015,05,19,06,50,11.60
2015,05,19,06,51,11.70
2015,05,19,06,52,11.70
2015,05,19,06,53,11.70
2015,05,19,06,54,11.70
2015,05,19,06,55,11.80
2015,05,19,06,56,11.80
2015,05,19,06,57,11.80
2015,05,19,06,58,11.80
2015,05,19,06,59,11.80
2015,05,19,07,00,11.80
2015,05,19,07,01,11.90
2015,05,19,07,02,12.00
2015,05,19,07,03,12.10
2015,05,19,07,04,12.10
2015,05,19,07,05,12.20
2015,05,19,07,06,12.20
2015,05,19,07,07,12.30
2015,05,19,07,08,12.30
2015,05,19,07,09,12.40
2015,05,19,07,10,12.50
2015,05,19,07,11,12.50
2015,05,19,07,12,12.60
2015,05,19,07,13,12.60
2015,05,19,07,14,12.70
2015,05,19,07,15,12.70
2015,05,19,07,16,12.80
2015,05,19,07,17,12.90
2015,05,19,07,18,12.90
2015,05,19,07,19,13.00
2015,05,19,07,20,13.10
2015,05,19,07,21,13.20
2015,05,19,07,22,13.30
2015,05,19,07,23,13.30
2015,05,19,07,24,13.40
2015,05,19,07,25,13.40
2015,05,19,07,26,13.50
2015,05,19,07,27,13.60
2015,05,19,07,28,13.60
2015,05,19,07,29,13.70
2015,05,19,07,30,13.80
2015,05,19,07,31,13.80
2015,05,19,07,32,13.90
2015,05,19,07,33,13.90
2015,05,19,07,34,14.00
2015,05,19,07,35,14.00
2015,05,19,07,36,14.10
2015,05,19,07,37,14.20
2015,05,19,07,38,14.30
2015,05,19,07,39,14.40
2015,05,19,07,40,14.40
2015,05,19,07,41,14.50
2015,05,19,07,42,14.50
2015,05,19,07,43,14.50
2015,05,19,07,44,14.40
2015,05,19,07,45,14.40
2015,05,19,07,46,14.30
2015,05,19,07,47,14.30
2015,05,19,07,48,14.20
2015,05,19,07,49,14.20
2015,05,19,07,50,14.20
2015,05,19,07,51,14.20
2015,05,19,07,52,14.20
2015,05,19,07,53,14.20
2015,05,19,07,54,14.20
2015,05,19,07,55,14.30
2015,05,19,07,56,14.30
2015,05,19,07,57,14.30
2015,05,19,07,58,14.30
2015,05,19,07,59,14.30
2015,05,19,08,00,14.30
2015,05,19,08,01,14.30
2015,05,19,08,02,14.40
2015,05,19,08,03,14.40
2015,05,19,08,04,14.40
2015,05,19,08,05,14.50
2015,05,19,08,06,14.50
2015,05,19,08,07,14.60
2015,05,19,08,08,14.60
2015,05,19,08,09,14.60
2015,05,19,08,10,14.70
2015,05,19,08,11,14.80
2015,05,19,08,12,14.80
2015,05,19,08,13,14.90
2015,05,19,08,14,15.00
2015,05,19,08,15,15.10
2015,05,19,08,16,15.20
2015,05,19,08,17,15.30
2015,05,19,08,18,15.30
2015,05,19,08,19,15.30
2015,05,19,08,20,15.30
2015,05,19,08,21,15.30
2015,05,19,08,22,15.30
2015,05,19,08,23,15.30
2015,05,19,08,24,15.30
2015,05,19,08,25,15.30
2015,05,19,08,26,15.30
2015,05,19,08,27,15.40
2015,05,19,08,28,15.30
2015,05,19,08,29,15.30
2015,05,19,08,30,15.30
2015,05,19,08,31,15.30
2015,05,19,08,32,15.40
2015,05,19,08,33,15.40
2015,05,19,08,34,15.50
2015,05,19,08,35,15.60
2015,05,19,08,36,15.60
2015,05,19,08,37,15.70
2015,05,19,08,38,15.70
2015,05,19,08,39,15.80
2015,05,19,08,40,15.80
2015,05,19,08,41,15.90
2015,05,19,08,42,15.90
2015,05,19,08,43,16.00
2015,05,19,08,44,16.00
2015,05,19,08,45,16.10
2015,05,19,08,46,16.30
2015,05,19,08,47,16.40
2015,05,19,08,48,16.50
2015,05,19,08,49,16.60
2015,05,19,08,50,16.60
2015,05,19,08,51,16.60
2015,05,19,08,52,16.60
2015,05,19,08,53,16.70
2015,05,19,08,54,16.70
2015,05,19,08,55,16.70
2015,05,19,08,56,16.80
2015,05,19,08,57,16.80
2015,05,19,08,58,16.90
2015,05,19,08,59,16.90
2015,05,19,09,00,16.90
2015,05,19,09,01,16.90
2015,05,19,09,02,16.90
2015,05,19,09,03,16.90
2015,05,19,09,04,16.90
2015,05,19,09,05,16.80
2015,05,19,09,06,16.90
2015,05,19,09,07,16.90
2015,05,19,09,08,16.90
2015,05,19,09,09,16.90
2015,05,19,09,10,17.00
2015,05,19,09,11,17.00
2015,05,19,09,12,17.10
2015,05,19,09,13,17.10
2015,05,19,09,14,17.10
2015,05,19,09,15,17.10
2015,05,19,09,16,17.10
2015,05,19,09,17,17.20
2015,05,19,09,18,17.20
2015,05,19,09,19,17.20
2015,05,19,09,20,17.20
2015,05,19,09,21,17.30
2015,05,19,09,22,17.30
2015,05,19,09,23,17.30
2015,05,19,09,24,17.20
2015,05,19,09,25,17.20
2015,05,19,09,26,17.20
2015,05,19,09,27,17.20
2015,05,19,09,28,17.10
2015,05,19,09,29,17.10
2015,05,19,09,30,17.00
2015,05,19,09,31,16.90
2015,05,19,09,32,16.90
2015,05,19,09,33,16.80
2015,05,19,09,34,16.80
2015,05,19,09,35,16.80
2015,05,19,09,36,16.80
2015,05,19,09,37,16.70
2015,05,19,09,38,16.70
2015,05,19,09,39,16.70
2015,05,19,09,40,16.70
2015,05,19,09,41,16.80
2015,05,19,09,42,16.90
2015,05,19,09,43,16.90
2015,05,19,09,44,17.00
2015,05,19,09,45,17.00
2015,05,19,09,46,17.00
2015,05,19,09,47,17.10
2015,05,19,09,48,17.10
2015,05,19,09,49,17.10
2015,05,19,09,50,17.10
2015,05,19,09,51,17.10
2015,05,19,09,52,17.00
2015,05,19,09,53,16.90
2015,05,19,09,54,16.90
2015,05,19,09,55,16.90
2015,05,19,09,56,16.90
2015,05,19,09,57,17.00
2015,05,19,09,58,17.00
2015,05,19,09,59,17.10
2015,05,19,10,00,17.10
2015,05,19,10,01,17.10
2015,05,19,10,02,17.20
2015,05,19,10,03,17.20
2015,05,19,10,04,17.20
2015,05,19,10,05,17.20
2015,05,19,10,06,17.20
2015,05,19,10,07,17.20
2015,05,19,10,08,17.20
2015,05,19,10,09,17.20
2015,05,19,10,10,17.20
2015,05,19,10,11,17.20
2015,05,19,10,12,17.10
2015,05,19,10,13,17.10
2015,05,19,10,14,17.10
2015,05,19,10,15,17.10
2015,05,19,10,16,17.10
2015,05,19,10,17,17.10
2015,05,19,10,18,17.20
2015,05,19,10,19,17.20
2015,05,19,10,20,17.20
2015,05,19,10,21,17.20
2015,05,19,10,22,17.30
2015,05,19,10,23,17.40
2015,05,19,10,24,17.50
2015,05,19,10,25,17.60
2015,05,19,10,26,17.70
2015,05,19,10,27,17.80
2015,05,19,10,28,17.70
2015,05,19,10,29,17.70
2015,05,19,10,30,17.70
2015,05,19,10,31,17.70
2015,05,19,10,32,17.80
2015,05,19,10,33,17.80
2015,05,19,10,34,17.80
2015,05,19,10,35,17.80
2015,05,19,10,36,17.80
2015,05,19,10,37,17.80
2015,05,19,10,38,17.90
2015,05,19,10,39,17.90
2015,05,19,10,40,17.90
2015,05,19,10,41,17.80
2015,05,19,10,42,17.80
2015,05,19,10,43,17.90
2015,05,19,10,44,17.90
2015,05,19,10,45,18.00
2015,05,19,10,46,18.10
2015,05,19,10,47,18.10
2015,05,19,10,48,18.20
2015,05,19,10,49,18.20
2015,05,19,10,50,18.30
2015,05,19,10,51,18.40
2015,05,19,10,52,18.50
2015,05,19,10,53,18.50
2015,05,19,10,54,18.60
2015,05,19,10,55,18.70
2015,05,19,10,56,18.70
2015,05,19,10,57,18.70
2015,05,19,10,58,18.80
2015,05,19,10,59,18.80
2015,05,19,11,00,18.70
2015,05,19,11,01,18.70
2015,05,19,11,02,18.70
2015,05,19,11,03,18.70
2015,05,19,11,04,18.70
2015,05,19,11,05,18.70
2015,05,19,11,06,18.60
2015,05,19,11,07,18.60
2015,05,19,11,08,18.50
2015,05,19,11,09,18.60
2015,05,19,11,10,18.70
2015,05,19,11,11,18.70
2015,05,19,11,12,18.70
2015,05,19,11,13,18.70
2015,05,19,11,14,18.70
2015,05,19,11,15,18.70
2015,05,19,11,16,18.70
2015,05,19,11,17,18.70
2015,05,19,11,18,18.70
2015,05,19,11,19,18.70
2015,05,19,11,20,18.70
2015,05,19,11,21,18.70
2015,05,19,11,22,18.70
2015,05,19,11,23,18.70
2015,05,19,11,24,18.70
2015,05,19,11,25,18.70
2015,05,19,11,26,18.80
2015,05,19,11,27,18.80
2015,05,19,11,28,18.90
2015,05,19,11,29,18.90
2015,05,19,11,30,18.80
2015,05,19,11,31,18.80
2015,05,19,11,32,18.90
2015,05,19,11,33,18.90
2015,05,19,11,34,18.80
2015,05,19,11,35,18.80
2015,05,19,11,36,18.80
2015,05,19,11,37,18.80
2015,05,19,11,38,18.90
2015,05,19,11,39,18.90
2015,05,19,11,40,18.90
2015,05,19,11,41,19.00
2015,05,19,11,42,19.10
2015,05,19,11,43,19.10
2015,05,19,11,44,19.10
2015,05,19,11,45,19.10
2015,05,19,11,46,19.10
2015,05,19,11,47,19.00
2015,05,19,11,48,19.00
2015,05,19,11,49,18.90
2015,05,19,11,50,18.90
2015,05,19,11,51,18.90
2015,05,19,11,52,18.90
2015,05,19,11,53,18.80
2015,05,19,11,54,18.80
2015,05,19,11,55,18.70
2015,05,19,11,56,18.70
2015,05,19,11,57,18.70
2015,05,19,11,58,18.70
2015,05,19,11,59,18.60
2015,05,19,12,00,18.50
2015,05,19,12,01,18.50
2015,05,19,12,02,18.60
2015,05,19,12,03,18.60
2015,05,19,12,04,18.50
2015,05,19,12,05,18.50
2015,05,19,12,06,18.40
2015,05,19,12,07,18.40
2015,05,19,12,08,18.50
2015,05,19,12,09,18.60
2015,05,19,12,10,18.60
2015,05,19,12,11,18.70
2015,05,19,12,12,18.80
2015,05,19,12,13,18.90
2015,05,19,12,14,18.90
2015,05,19,12,15,18.90
2015,05,19,12,16,18.90
2015,05,19,12,17,18.90
2015,05,19,12,18,18.90
2015,05,19,12,19,18.90
2015,05,19,12,20,18.90
2015,05,19,12,21,18.90
2015,05,19,12,22,19.00
2015,05,19,12,23,18.90
2015,05,19,12,24,18.90
2015,05,19,12,25,18.90
2015,05,19,12,26,18.90
2015,05,19,12,27,19.00
2015,05,19,12,28,19.10
2015,05,19,12,29,19.20
2015,05,19,12,30,19.20
2015,05,19,12,31,19.20
2015,05,19,12,32,19.30
2015,05,19,12,33,19.30
2015,05,19,12,34,19.30
2015,05,19,12,35,19.30
2015,05,19,12,36,19.20
2015,05,19,12,37,19.20
2015,05,19,12,38,19.10
2015,05,19,12,39,19.00
2015,05,19,12,40,19.00
2015,05,19,12,41,19.00
2015,05,19,12,42,19.00
2015,05,19,12,43,19.10
2015,05,19,12,44,19.20
2015,05,19,12,45,19.10
2015,05,19,12,46,19.10
2015,05,19,12,47,19.10
2015,05,19,12,48,19.10
2015,05,19,12,49,19.10
2015,05,19,12,50,19.00
2015,05,19,12,51,19.00
2015,05,19,12,52,19.00
2015,05,19,12,53,19.00
2015,05,19,12,54,19.10
2015,05,19,12,55,19.10
2015,05,19,12,56,19.10
2015,05,19,12,57,19.10
2015,05,19,12,58,19.00
2015,05,19,12,59,19.00
2015,05,19,13,00,19.00
2015,05,19,13,01,19.00
2015,05,19,13,02,19.10
2015,05,19,13,03,19.20
2015,05,19,13,04,19.20
2015,05,19,13,05,19.20
2015,05,19,13,06,19.20
2015,05,19,13,07,19.10
2015,05,19,13,08,19.10
2015,05,19,13,09,19.10
2015,05,19,13,10,19.10
2015,05,19,13,11,19.10
2015,05,19,13,12,19.10
2015,05,19,13,13,19.00
2015,05,19,13,14,19.00
2015,05,19,13,15,19.00
2015,05,19,13,16,19.00
2015,05,19,13,17,19.00
2015,05,19,13,18,19.10
2015,05,19,13,19,19.00
2015,05,19,13,20,18.90
2015,05,19,13,21,19.00
2015,05,19,13,22,19.00
2015,05,19,13,23,19.10
2015,05,19,13,24,19.20
2015,05,19,13,25,19.30
2015,05,19,13,26,19.40
2015,05,19,13,27,19.50
2015,05,19,13,28,19.60
2015,05,19,13,29,19.60
2015,05,19,13,30,19.60
2015,05,19,13,31,19.50
2015,05,19,13,32,19.50
2015,05,19,13,33,19.40
2015,05,19,13,34,19.30
2015,05,19,13,35,19.20
2015,05,19,13,36,19.20
2015,05,19,13,37,19.20
2015,05,19,13,38,19.20
2015,05,19,13,39,19.30
2015,05,19,13,40,19.30
2015,05,19,13,41,19.40
2015,05,19,13,42,19.50
2015,05,19,13,43,19.50
2015,05,19,13,44,19.50
2015,05,19,13,45,19.50
2015,05,19,13,46,19.40
2015,05,19,13,47,19.30
2015,05,19,13,48,19.30
2015,05,19,13,49,19.20
2015,05,19,13,50,19.20
2015,05,19,13,51,19.20
2015,05,19,13,52,19.30
2015,05,19,13,53,19.30
2015,05,19,13,54,19.30
2015,05,19,13,55,19.20
2015,05,19,13,56,19.20
2015,05,19,13,57,19.20
2015,05,19,13,58,19.20
2015,05,19,13,59,19.30
2015,05,19,14,00,19.30
2015,05,19,14,01,19.40
2015,05,19,14,02,19.40
2015,05,19,14,03,19.50
2015,05,19,14,04,19.60
2015,05,19,14,05,19.70
2015,05,19,14,06,19.70
2015,05,19,14,07,19.70
2015,05,19,14,08,19.70
2015,05,19,14,09,19.70
2015,05,19,14,10,19.70
2015,05,19,14,11,19.80
2015,05,19,14,12,19.90
2015,05,19,14,13,19.90
2015,05,19,14,14,20.00
2015,05,19,14,15,20.00
2015,05,19,14,16,19.90
2015,05,19,14,17,19.80
2015,05,19,14,18,19.90
2015,05,19,14,19,20.00
2015,05,19,14,20,20.00
2015,05,19,14,21,20.00
2015,05,19,14,22,19.90
2015,05,19,14,23,19.90
2015,05,19,14,24,19.90
2015,05,19,14,25,20.00
2015,05,19,14,26,20.10
2015,05,19,14,27,20.10
2015,05,19,14,28,20.10
2015,05,19,14,29,20.20
2015,05,19,14,30,20.30
2015,05,19,14,31,20.30
2015,05,19,14,32,20.30
2015,05,19,14,33,20.20
2015,05,19,14,34,20.20
2015,05,19,14,35,20.10
2015,05,19,14,36,20.20
2015,05,19,14,37,20.20
2015,05,19,14,38,20.20
2015,05,19,14,39,20.40
2015,05,19,14,40,20.50
2015,05,19,14,41,20.50
2015,05,19,14,42,20.50
2015,05,19,14,43,20.40
2015,05,19,14,44,20.40
2015,05,19,14,45,20.30
2015,05,19,14,46,20.30
2015,05,19,14,47,20.30
2015,05,19,14,48,20.20
2015,05,19,14,49,20.20
2015,05,19,14,50,20.20
2015,05,19,14,51,20.10
2015,05,19,14,52,20.10
2015,05,19,14,53,20.00
2015,05,19,14,54,20.10
2015,05,19,14,55,20.20
2015,05,19,14,56,20.30
2015,05,19,14,57,20.40
2015,05,19,14,58,20.50
2015,05,19,14,59,20.50
2015,05,19,15,00,20.40
2015,05,19,15,01,20.40
2015,05,19,15,02,20.30
2015,05,19,15,03,20.40
2015,05,19,15,04,20.40
2015,05,19,15,05,20.50
2015,05,19,15,06,20.60
2015,05,19,15,07,20.60
2015,05,19,15,08,20.50
2015,05,19,15,09,20.40
2015,05,19,15,10,20.30
2015,05,19,15,11,20.30
2015,05,19,15,12,20.30
2015,05,19,15,13,20.30
2015,05,19,15,14,20.40
2015,05,19,15,15,20.40
2015,05,19,15,16,20.50
2015,05,19,15,17,20.60
2015,05,19,15,18,20.60
2015,05,19,15,19,20.70
2015,05,19,15,20,20.70
2015,05,19,15,21,20.70
2015,05,19,15,22,20.70
2015,05,19,15,23,20.70
2015,05,19,15,24,20.70
2015,05,19,15,25,20.70
2015,05,19,15,26,20.70
2015,05,19,15,27,20.70
2015,05,19,15,28,20.70
2015,05,19,15,29,20.70
2015,05,19,15,30,20.80
2015,05,19,15,31,20.80
2015,05,19,15,32,20.80
2015,05,19,15,33,20.70
2015,05,19,15,34,20.80
2015,05,19,15,35,20.80
2015,05,19,15,36,20.80
2015,05,19,15,37,20.80
2015,05,19,15,38,20.80
2015,05,19,15,39,20.90
2015,05,19,15,40,20.90
2015,05,19,15,41,20.80
2015,05,19,15,42,20.70
2015,05,19,15,43,20.60
2015,05,19,15,44,20.60
2015,05,19,15,45,20.60
2015,05,19,15,46,20.50
2015,05,19,15,47,20.40
2015,05,19,15,48,20.40
2015,05,19,15,49,20.30
2015,05,19,15,50,20.30
2015,05,19,15,51,20.40
2015,05,19,15,52,20.40
2015,05,19,15,53,20.40
2015,05,19,15,54,20.40
2015,05,19,15,55,20.40
2015,05,19,15,56,20.50
2015,05,19,15,57,20.50
2015,05,19,15,58,20.60
2015,05,19,15,59,20.70
2015,05,19,16,00,20.70
2015,05,19,16,01,20.70
2015,05,19,16,02,20.70
2015,05,19,16,03,20.70
2015,05,19,16,04,20.80
2015,05,19,16,05,20.90
2015,05,19,16,06,20.80
2015,05,19,16,07,20.80
2015,05,19,16,08,20.90
2015,05,19,16,09,21.00
2015,05,19,16,10,21.10
2015,05,19,16,11,21.10
2015,05,19,16,12,21.10
2015,05,19,16,13,21.20
2015,05,19,16,14,21.30
2015,05,19,16,15,21.40
2015,05,19,16,16,21.40
2015,05,19,16,17,21.30
2015,05,19,16,18,21.20
2015,05,19,16,19,21.20
2015,05,19,16,20,21.10
2015,05,19,16,21,21.00
2015,05,19,16,22,20.90
2015,05,19,16,23,20.80
2015,05,19,16,24,20.70
2015,05,19,16,25,20.60
2015,05,19,16,26,20.60
2015,05,19,16,27,20.50
2015,05,19,16,28,20.50
2015,05,19,16,29,20.50
2015,05,19,16,30,20.50
2015,05,19,16,31,20.60
2015,05,19,16,32,20.60
2015,05,19,16,33,20.60
2015,05,19,16,34,20.70
2015,05,19,16,35,20.70
2015,05,19,16,36,20.70
2015,05,19,16,37,20.70
2015,05,19,16,38,20.70
2015,05,19,16,39,20.80
2015,05,19,16,40,20.80
2015,05,19,16,41,20.80
2015,05,19,16,42,20.80
2015,05,19,16,43,20.80
2015,05,19,16,44,20.80
2015,05,19,16,45,20.90
2015,05,19,16,46,21.00
2015,05,19,16,47,21.00
2015,05,19,16,48,21.00
2015,05,19,16,49,21.00
2015,05,19,16,50,21.00
2015,05,19,16,51,21.10
2015,05,19,16,52,21.10
2015,05,19,16,53,21.10
2015,05,19,16,54,21.20
2015,05,19,16,55,21.20
2015,05,19,16,56,21.20
2015,05,19,16,57,21.30
2015,05,19,16,58,21.30
2015,05,19,16,59,21.40
2015,05,19,17,00,21.40
2015,05,19,17,01,21.40
2015,05,19,17,02,21.40
2015,05,19,17,03,21.40
2015,05,19,17,04,21.40
2015,05,19,17,05,21.30
2015,05,19,17,06,21.30
2015,05,19,17,07,21.30
2015,05,19,17,08,21.20
2015,05,19,17,09,21.30
2015,05,19,17,10,21.20
2015,05,19,17,11,21.20
2015,05,19,17,12,21.30
2015,05,19,17,13,21.40
2015,05,19,17,14,21.40
2015,05,19,17,15,21.40
2015,05,19,17,16,21.30
2015,05,19,17,17,21.30
2015,05,19,17,18,21.20
2015,05,19,17,19,21.20
2015,05,19,17,20,21.20
2015,05,19,17,21,21.30
2015,05,19,17,22,21.40
2015,05,19,17,23,21.50